N124MC KTIW-KRNT

Flight info

Callsign N124MC
Flight time 0h 40m
Altitude 7500
Route VFR MT RAINER
Aircraft M20P/L-VGD/C

Departure

Time 2026-05-07 14:43
Airport Tacoma Narrows Airport (KTIW)

Arrival

Time 2026-05-07 15:24
Airport Renton Municipal Airport (KRNT)
Time Latitude Longitude Altitude Speed Heading
2026-05-07 14:39 47.27401 -122.57449 293 ft 0 kts 277°
2026-05-07 14:41 47.27418 -122.57469 294 ft 12 kts 333°
2026-05-07 14:41 47.27456 -122.57545 294 ft 7 kts 276°
2026-05-07 14:42 47.27462 -122.57623 294 ft 16 kts 275°
2026-05-07 14:42 47.27404 -122.57702 295 ft 24 kts 188°
2026-05-07 14:42 47.27068 -122.57760 309 ft 68 kts 184°
2026-05-07 14:42 47.26516 -122.57836 484 ft 82 kts 185°
2026-05-07 14:43 47.25925 -122.57874 748 ft 94 kts 183°
2026-05-07 14:43 47.25370 -122.57356 1045 ft 106 kts 117°
2026-05-07 14:43 47.25046 -122.56388 1440 ft 105 kts 127°
2026-05-07 14:43 47.24651 -122.55484 1829 ft 105 kts 124°
2026-05-07 14:44 47.24257 -122.54569 2211 ft 106 kts 124°
2026-05-07 14:44 47.23855 -122.53674 2593 ft 104 kts 124°
2026-05-07 14:44 47.23453 -122.52818 2975 ft 100 kts 124°
2026-05-07 14:44 47.23053 -122.52012 3350 ft 95 kts 124°
2026-05-07 14:45 47.22662 -122.51269 3713 ft 88 kts 123°
2026-05-07 14:45 47.22297 -122.50614 4053 ft 76 kts 125°
2026-05-07 14:45 47.22001 -122.50084 4303 ft 67 kts 123°
2026-05-07 14:45 47.21599 -122.49391 4289 ft 102 kts 126°
2026-05-07 14:46 47.21150 -122.48573 4570 ft 104 kts 125°
2026-05-07 14:46 47.20693 -122.47735 4855 ft 107 kts 125°
2026-05-07 14:46 47.20246 -122.46848 5117 ft 109 kts 122°
2026-05-07 14:46 47.19802 -122.45931 5374 ft 111 kts 122°
2026-05-07 14:47 47.19352 -122.44996 5628 ft 113 kts 123°
2026-05-07 14:47 47.18875 -122.44059 5887 ft 115 kts 123°
2026-05-07 14:47 47.18394 -122.43108 6143 ft 116 kts 124°
2026-05-07 14:47 47.17914 -122.42149 6400 ft 117 kts 124°
2026-05-07 14:48 47.17434 -122.41187 6651 ft 117 kts 124°
2026-05-07 14:48 47.16956 -122.40229 6887 ft 116 kts 124°
2026-05-07 14:48 47.16481 -122.39273 7123 ft 115 kts 123°
2026-05-07 14:48 47.16011 -122.38328 7361 ft 115 kts 123°
2026-05-07 14:49 47.15542 -122.37385 7600 ft 114 kts 123°
2026-05-07 14:49 47.15066 -122.36425 7792 ft 121 kts 124°
2026-05-07 14:49 47.14543 -122.35369 7930 ft 131 kts 124°
2026-05-07 14:49 47.14002 -122.34263 8067 ft 139 kts 124°
2026-05-07 14:50 47.13429 -122.33088 8203 ft 144 kts 124°
2026-05-07 14:50 47.12835 -122.31865 8339 ft 149 kts 124°
2026-05-07 14:50 47.12225 -122.30605 8477 ft 153 kts 124°
2026-05-07 14:50 47.11603 -122.29319 8609 ft 156 kts 124°
2026-05-07 14:51 47.10972 -122.28010 8741 ft 158 kts 124°
2026-05-07 14:51 47.10336 -122.26689 8874 ft 159 kts 124°
2026-05-07 14:51 47.09695 -122.25357 9001 ft 160 kts 124°
2026-05-07 14:51 47.09053 -122.24020 9131 ft 161 kts 124°
2026-05-07 14:52 47.08411 -122.22679 9260 ft 161 kts 124°
2026-05-07 14:52 47.07766 -122.21332 9391 ft 162 kts 124°
2026-05-07 14:52 47.07116 -122.19972 9497 ft 165 kts 124°
2026-05-07 14:52 47.06443 -122.18559 9498 ft 172 kts 124°
2026-05-07 14:53 47.05746 -122.17102 9507 ft 176 kts 124°
2026-05-07 14:53 47.05036 -122.15612 9509 ft 180 kts 124°
2026-05-07 14:53 47.04313 -122.14089 9506 ft 183 kts 124°
2026-05-07 14:53 47.03581 -122.12551 9504 ft 184 kts 124°
2026-05-07 14:54 47.02844 -122.11004 9506 ft 186 kts 124°
2026-05-07 14:54 47.02099 -122.09439 9500 ft 187 kts 124°
2026-05-07 14:54 47.01354 -122.07871 9500 ft 188 kts 124°
2026-05-07 14:54 47.00607 -122.06301 9499 ft 188 kts 124°
2026-05-07 14:55 46.99858 -122.04731 9498 ft 188 kts 124°
2026-05-07 14:55 46.99109 -122.03157 9497 ft 189 kts 124°
2026-05-07 14:55 46.98391 -122.01551 9497 ft 188 kts 121°
2026-05-07 14:55 46.97694 -121.99929 9492 ft 188 kts 121°
2026-05-07 14:56 46.96997 -121.98303 9493 ft 188 kts 121°
2026-05-07 14:56 46.96302 -121.96679 9489 ft 189 kts 121°
2026-05-07 14:56 46.95603 -121.95048 9487 ft 189 kts 121°
2026-05-07 14:56 46.94901 -121.93410 9480 ft 190 kts 121°
2026-05-07 14:57 46.94199 -121.91776 9478 ft 189 kts 121°
2026-05-07 14:57 46.93501 -121.90149 9475 ft 188 kts 121°
2026-05-07 14:57 46.92804 -121.88525 9473 ft 189 kts 121°
2026-05-07 14:57 46.92105 -121.86899 9471 ft 188 kts 121°
2026-05-07 14:58 46.91505 -121.85214 9463 ft 186 kts 103°
2026-05-07 14:58 46.91523 -121.83367 9453 ft 182 kts 69°
2026-05-07 14:58 46.92200 -121.81877 9456 ft 175 kts 36°
2026-05-07 14:58 46.93298 -121.81205 9454 ft 172 kts
2026-05-07 14:59 46.94478 -121.81292 9450 ft 170 kts 346°
2026-05-07 14:59 46.95563 -121.81915 9465 ft 167 kts 339°
2026-05-07 14:59 46.96689 -121.82376 9466 ft 169 kts 346°
2026-05-07 14:59 46.97847 -121.82717 9408 ft 172 kts 347°
2026-05-07 15:00 46.99038 -121.83054 9290 ft 177 kts 348°
2026-05-07 15:00 47.00261 -121.83405 9158 ft 181 kts 347°
2026-05-07 15:00 47.01485 -121.83758 9039 ft 180 kts 347°
2026-05-07 15:00 47.02728 -121.84116 8908 ft 183 kts 347°
2026-05-07 15:01 47.03975 -121.84475 8791 ft 184 kts 348°
2026-05-07 15:01 47.05237 -121.84839 8668 ft 186 kts 347°
2026-05-07 15:01 47.06510 -121.85206 8544 ft 186 kts 347°
2026-05-07 15:01 47.07777 -121.85572 8479 ft 184 kts 347°
2026-05-07 15:02 47.09014 -121.85930 8497 ft 179 kts 347°
2026-05-07 15:02 47.10224 -121.86279 8501 ft 176 kts 347°
2026-05-07 15:02 47.11425 -121.86627 8499 ft 175 kts 347°
2026-05-07 15:02 47.12620 -121.86973 8501 ft 175 kts 348°
2026-05-07 15:03 47.13809 -121.87317 8500 ft 174 kts 348°
2026-05-07 15:03 47.14998 -121.87661 8501 ft 174 kts 348°
2026-05-07 15:03 47.16182 -121.88004 8506 ft 173 kts 348°
2026-05-07 15:03 47.17358 -121.88345 8501 ft 172 kts 348°
2026-05-07 15:04 47.18543 -121.88689 8414 ft 176 kts 348°
2026-05-07 15:04 47.19738 -121.89035 8294 ft 179 kts 348°
2026-05-07 15:04 47.20982 -121.89396 8169 ft 180 kts 348°
2026-05-07 15:04 47.22199 -121.89749 8052 ft 182 kts 348°
2026-05-07 15:05 47.23441 -121.90110 7925 ft 183 kts 348°
2026-05-07 15:05 47.24685 -121.90471 7805 ft 182 kts 348°
2026-05-07 15:05 47.25924 -121.90832 7683 ft 181 kts 348°
2026-05-07 15:05 47.27158 -121.91191 7556 ft 180 kts 348°
2026-05-07 15:06 47.28387 -121.91549 7434 ft 180 kts 348°
2026-05-07 15:06 47.29614 -121.91906 7309 ft 179 kts 348°
2026-05-07 15:06 47.30838 -121.92263 7189 ft 179 kts 348°
2026-05-07 15:06 47.32062 -121.92619 7069 ft 179 kts 348°
2026-05-07 15:07 47.33284 -121.92975 6952 ft 179 kts 348°
2026-05-07 15:07 47.34504 -121.93332 6830 ft 179 kts 348°
2026-05-07 15:07 47.35723 -121.93687 6710 ft 179 kts 348°
2026-05-07 15:07 47.36941 -121.94043 6593 ft 178 kts 348°
2026-05-07 15:08 47.38157 -121.94398 6516 ft 176 kts 348°
2026-05-07 15:08 47.39338 -121.94743 6516 ft 171 kts 348°
2026-05-07 15:08 47.40107 -121.94968 6513 ft 168 kts 348°
2026-05-07 15:08 47.41247 -121.95301 6510 ft 166 kts 348°
2026-05-07 15:09 47.42382 -121.95634 6508 ft 166 kts 348°
2026-05-07 15:09 47.43509 -121.95964 6509 ft 166 kts 348°
2026-05-07 15:09 47.44650 -121.96299 6508 ft 167 kts 348°
2026-05-07 15:09 47.45792 -121.96633 6507 ft 168 kts 348°
2026-05-07 15:10 47.46943 -121.96970 6511 ft 169 kts 348°
2026-05-07 15:10 47.48101 -121.97310 6510 ft 170 kts 348°
2026-05-07 15:10 47.49263 -121.97651 6515 ft 171 kts 348°
2026-05-07 15:10 47.50421 -121.97990 6514 ft 168 kts 348°
2026-05-07 15:11 47.51577 -121.98331 6516 ft 170 kts 348°
2026-05-07 15:11 47.52741 -121.98673 6519 ft 171 kts 348°
2026-05-07 15:11 47.53925 -121.99020 6407 ft 175 kts 348°
2026-05-07 15:11 47.55124 -121.99372 6140 ft 176 kts 348°
2026-05-07 15:12 47.56327 -121.99726 5878 ft 176 kts 349°
2026-05-07 15:12 47.57524 -122.00078 5624 ft 175 kts 349°
2026-05-07 15:12 47.58717 -122.00430 5369 ft 174 kts 349°
2026-05-07 15:12 47.59905 -122.00779 5121 ft 174 kts 349°
2026-05-07 15:13 47.61093 -122.01130 4863 ft 174 kts 349°
2026-05-07 15:13 47.62278 -122.01480 4602 ft 173 kts 350°
2026-05-07 15:13 47.63453 -122.01826 4338 ft 171 kts 349°
2026-05-07 15:13 47.64614 -122.02168 4077 ft 170 kts 349°
2026-05-07 15:14 47.65769 -122.02510 3823 ft 169 kts 349°
2026-05-07 15:14 47.66929 -122.02852 3566 ft 170 kts 349°
2026-05-07 15:14 47.68089 -122.03195 3309 ft 171 kts 349°
2026-05-07 15:14 47.69262 -122.03542 3049 ft 172 kts 349°
2026-05-07 15:15 47.70440 -122.03890 2798 ft 173 kts 348°
2026-05-07 15:15 47.71564 -122.04490 2529 ft 173 kts 324°
2026-05-07 15:15 47.72296 -122.05862 2268 ft 171 kts 289°
2026-05-07 15:15 47.72375 -122.07570 2108 ft 162 kts 254°
2026-05-07 15:16 47.71940 -122.09057 2105 ft 156 kts 243°
2026-05-07 15:16 47.71489 -122.10555 2118 ft 162 kts 246°
2026-05-07 15:16 47.71060 -122.12118 2106 ft 165 kts 247°
2026-05-07 15:16 47.70630 -122.13712 2106 ft 167 kts 246°
2026-05-07 15:17 47.70195 -122.15322 2105 ft 169 kts 246°
2026-05-07 15:17 47.69755 -122.16948 2108 ft 170 kts 247°
2026-05-07 15:17 47.69315 -122.18576 2106 ft 171 kts 247°
2026-05-07 15:17 47.68873 -122.20206 2105 ft 169 kts 246°
2026-05-07 15:18 47.68434 -122.21828 2104 ft 170 kts 246°
2026-05-07 15:18 47.67886 -122.23347 2094 ft 165 kts 226°
2026-05-07 15:18 47.66918 -122.24179 1968 ft 163 kts 192°
2026-05-07 15:18 47.65788 -122.24126 1841 ft 163 kts 173°
2026-05-07 15:19 47.64668 -122.23910 1717 ft 162 kts 174°
2026-05-07 15:19 47.63562 -122.23734 1603 ft 162 kts 174°
2026-05-07 15:19 47.62445 -122.23566 1603 ft 156 kts 174°
2026-05-07 15:19 47.61377 -122.23403 1598 ft 153 kts 175°
2026-05-07 15:20 47.60363 -122.23249 1594 ft 141 kts 174°
2026-05-07 15:20 47.59433 -122.23108 1590 ft 128 kts 175°
2026-05-07 15:20 47.58574 -122.22976 1593 ft 121 kts 174°
2026-05-07 15:20 47.57742 -122.22849 1476 ft 122 kts 175°
2026-05-07 15:21 47.56891 -122.22722 1279 ft 124 kts 175°
2026-05-07 15:21 47.56033 -122.22592 1126 ft 122 kts 174°
2026-05-07 15:21 47.55219 -122.22451 1098 ft 113 kts 172°
2026-05-07 15:21 47.54458 -122.22308 1022 ft 106 kts 174°
2026-05-07 15:22 47.53748 -122.22211 836 ft 105 kts 176°
2026-05-07 15:22 47.53035 -122.22143 697 ft 102 kts 176°
2026-05-07 15:22 47.52333 -122.22044 559 ft 101 kts 174°
2026-05-07 15:22 47.51662 -122.21907 448 ft 93 kts 173°
2026-05-07 15:23 47.51032 -122.21817 299 ft 86 kts 175°
2026-05-07 15:23 47.50476 -122.21735 179 ft 78 kts 175°
2026-05-07 15:23 47.49947 -122.21668 43 ft 73 kts 170°
2026-05-07 15:23 47.49526 -122.21603 28 ft 51 kts 176°
2026-05-07 15:24 47.49314 -122.21591 31 ft 15 kts 217°
2026-05-07 15:24 47.49307 -122.21718 31 ft 13 kts 289°
2026-05-07 15:24 47.49325 -122.21761 31 ft 0 kts 84°